Date String (YYYY-MM-DD hh:mm:ss) UTC,Instrument flags,Ambient pressure (hPa),Sample flow (lpm),Bypass flow (lpm),Sample temperature (°C),Ambient temperature (°C),ASC tube jacket temperature (°C),LED temperature (°C),Box temperature (°C),Sample RH (%),Span deviation,Mass concentration (μg/m³),Mass concentration (μg/m³),Mass concentration (μg/m³)
DateTimeUTC,F1_M11,P_M11,Q1_M11,Q2_M11,T1_M11,T2_M11,T3_M11,T4_M11,T5_M11,U1_M11,ZSPAN_M11,X0_M11,X2_M11,X1_M11
2021-12-06 17:00:00,,0828.7,5.01,0.00,23.0,23.2,00.0,31.8,24.9,06.2,0000.0,0009.18,0003.27,0002.16
2021-12-06 17:01:00,,0828.5,5.00,0.00,23.0,23.0,00.0,31.8,24.8,06.1,0000.0,0009.19,0003.25,0002.13
2021-12-06 17:02:00,,0828.7,5.00,0.00,23.0,22.8,00.0,31.8,24.8,06.0,0000.0,0008.70,0003.26,0002.12
2021-12-06 17:03:00,,0828.6,5.00,0.00,23.0,22.7,00.0,31.8,24.8,05.9,0000.0,0008.84,0003.28,0002.12
2021-12-06 17:04:00,,0828.5,4.99,0.00,23.0,22.6,00.0,31.8,24.8,05.9,0000.0,0008.90,0003.29,0002.11
2021-12-06 17:05:00,,0828.5,5.00,0.00,23.0,22.5,00.0,31.8,24.8,05.9,0000.0,0009.12,0003.23,0002.09
2021-12-06 17:06:00,,0828.3,5.02,0.00,23.0,22.4,00.0,31.8,24.7,05.9,0000.0,0008.77,0003.15,0002.07
2021-12-06 17:07:00,,0828.1,4.99,0.00,22.9,22.3,00.0,31.8,24.7,05.9,0000.0,0008.57,0003.13,0002.05
2021-12-06 17:08:00,,0828.2,5.01,0.00,22.9,22.3,00.0,31.8,24.7,05.9,0000.0,0009.11,0003.10,0002.02
2021-12-06 17:09:00,,0828.3,4.98,0.00,22.9,22.2,00.0,31.8,24.7,05.9,0000.0,0009.71,0003.08,0002.00
2021-12-06 17:10:00,,0828.3,5.01,0.00,22.9,22.2,00.0,31.8,24.7,05.9,0000.0,0010.68,0003.08,0001.98
2021-12-06 17:11:00,,0828.3,4.99,0.00,22.9,22.2,00.0,31.8,24.7,05.9,0000.0,0010.43,0003.07,0001.98
2021-12-06 17:12:00,,0828.1,5.00,0.00,22.9,22.2,00.0,31.8,24.7,05.9,0000.0,0010.47,0003.07,0001.98
2021-12-06 17:13:00,,0828.1,5.02,0.00,22.9,22.1,00.0,31.8,24.7,05.9,0000.0,0010.27,0002.99,0001.96
2021-12-06 17:14:00,,0827.9,5.00,0.00,22.9,22.1,00.0,31.8,24.7,05.9,0000.0,0010.17,0002.93,0001.96
2021-12-06 17:15:00,,0827.9,4.99,0.00,22.9,22.2,00.0,31.8,24.7,05.9,0000.0,0010.83,0002.94,0001.95
2021-12-06 17:16:00,,0827.9,5.01,0.00,22.9,22.2,00.0,31.8,24.7,05.8,0000.0,0010.63,0002.96,0001.95
2021-12-06 17:17:00,,0828.0,4.99,0.00,22.9,22.2,00.0,31.8,24.7,05.8,0000.0,0010.99,0002.96,0001.95
2021-12-06 17:18:00,,0828.0,4.99,0.00,22.9,22.2,00.0,31.8,24.7,05.8,0000.0,0010.70,0002.88,0001.94
2021-12-06 17:19:00,,0827.8,5.02,0.00,22.9,22.2,00.0,31.8,24.7,05.8,0000.0,0009.83,0002.88,0001.94
2021-12-06 17:20:00,,0827.9,4.99,0.00,22.9,22.2,00.0,31.8,24.7,05.8,0000.0,0009.04,0002.90,0001.94
2021-12-06 17:21:00,,0827.9,5.01,0.00,23.0,22.2,00.0,31.8,24.7,05.9,0000.0,0007.89,0002.87,0001.96
2021-12-06 17:22:00,,0827.8,4.99,0.00,23.0,22.2,00.0,31.8,24.7,05.9,0000.0,0008.02,0002.87,0001.97
2021-12-06 17:23:00,,0827.8,5.00,0.00,23.0,22.2,00.0,31.9,24.8,06.0,0000.0,0008.05,0002.91,0001.97
2021-12-06 17:24:00,,0827.7,5.00,0.00,23.0,22.3,00.0,31.9,24.8,05.9,0000.0,0008.19,0002.94,0001.99
2021-12-06 17:25:00,,0827.7,5.01,0.00,23.0,22.3,00.0,31.9,24.8,05.9,0000.0,0008.75,0002.93,0001.97
2021-12-06 17:26:00,,0827.6,4.99,0.00,23.0,22.3,00.0,31.9,24.8,05.8,0000.0,0008.63,0002.89,0001.96
2021-12-06 17:27:00,,0827.6,5.00,0.00,23.0,22.3,00.0,31.9,24.8,05.9,0000.0,0009.00,0002.91,0001.96
2021-12-06 17:28:00,,0827.7,5.01,0.00,23.0,22.3,00.0,31.9,24.8,06.0,0000.0,0008.65,0002.92,0001.97
2021-12-06 17:29:00,,0827.7,5.00,0.00,23.0,22.3,00.0,31.9,24.8,06.0,0000.0,0009.02,0003.02,0002.00
2021-12-06 17:30:00,,0827.5,5.00,0.00,23.0,22.3,00.0,31.9,24.8,06.0,0000.0,0009.32,0003.03,0002.01
2021-12-06 17:31:00,,0827.5,4.99,0.00,23.0,22.3,00.0,31.9,24.8,06.0,0000.0,0010.10,0002.96,0002.01
2021-12-06 17:32:00,,0827.7,5.01,0.00,23.0,22.3,00.0,31.9,24.8,06.0,0000.0,0010.14,0003.02,0002.00
2021-12-06 17:33:00,,0827.6,5.00,0.00,23.1,22.3,00.0,31.9,24.8,05.9,0000.0,0010.00,0003.06,0001.99
2021-12-06 17:34:00,,0827.5,4.99,0.00,23.1,22.3,00.0,31.9,24.8,06.0,0000.0,0010.00,0003.01,0001.99
2021-12-06 17:35:00,,0827.4,5.01,0.00,23.1,22.3,00.0,32.0,24.8,06.1,0000.0,0009.80,0002.99,0001.98
2021-12-06 17:36:00,,0827.3,5.00,0.00,23.1,22.3,00.0,32.0,24.9,06.1,0000.0,0009.42,0003.03,0002.00
2021-12-06 17:37:00,,0827.2,4.99,0.00,23.1,22.3,00.0,32.0,24.9,06.1,0000.0,0009.44,0003.06,0002.04
2021-12-06 17:38:00,,0827.3,4.99,0.00,23.1,22.3,00.0,32.0,24.9,06.2,0000.0,0009.14,0003.09,0002.06
2021-12-06 17:39:00,,0827.4,5.01,0.00,23.1,22.4,00.0,32.0,24.9,06.3,0000.0,0009.42,0003.10,0002.08
2021-12-06 17:40:00,,0827.3,4.99,0.00,23.1,22.4,00.0,32.0,24.9,06.3,0000.0,0009.95,0003.12,0002.09
2021-12-06 17:41:00,,0827.4,5.02,0.00,23.1,22.4,00.0,32.0,24.9,06.3,0000.0,0010.40,0003.11,0002.10
2021-12-06 17:42:00,,0827.4,4.99,0.00,23.1,22.4,00.0,32.0,24.9,06.3,0000.0,0009.51,0003.14,0002.12
2021-12-06 17:43:00,,0827.3,5.01,0.00,23.1,22.4,00.0,32.0,24.9,06.4,0000.0,0009.92,0003.15,0002.17
2021-12-06 17:44:00,,0827.1,4.98,0.00,23.2,22.4,00.0,32.0,25.0,06.5,0000.0,0010.64,0003.22,0002.22
2021-12-06 17:45:00,,0827.0,5.01,0.00,23.2,22.4,00.0,32.0,25.0,06.3,0000.0,0010.99,0003.25,0002.25
2021-12-06 17:46:00,,0827.0,5.00,0.00,23.2,22.4,00.0,32.1,25.0,06.4,0000.0,0012.21,0003.30,0002.28
2021-12-06 17:47:00,,0827.3,5.00,0.00,23.2,22.5,00.0,32.1,25.0,06.4,0000.0,0012.51,0003.36,0002.31
2021-12-06 17:48:00,,0827.2,4.99,0.00,23.2,22.5,00.0,32.1,25.0,06.5,0000.0,0012.69,0003.45,0002.36
2021-12-06 17:49:00,,0827.3,5.01,0.00,23.2,22.5,00.0,32.1,25.0,06.5,0000.0,0012.75,0003.50,0002.42
2021-12-06 17:50:00,,0827.4,4.99,0.00,23.2,22.5,00.0,32.1,25.0,06.4,0000.0,0013.34,0003.57,0002.45
2021-12-06 17:51:00,,0827.2,5.01,0.00,23.2,22.5,00.0,32.1,25.0,06.4,0000.0,0012.91,0003.61,0002.48
2021-12-06 17:52:00,,0827.0,4.98,0.00,23.2,22.5,00.0,32.1,25.0,06.4,0000.0,0012.88,0003.65,0002.51
2021-12-06 17:53:00,,0826.9,5.02,0.00,23.2,22.4,00.0,32.1,25.0,06.5,0000.0,0013.10,0003.71,0002.58
2021-12-06 17:54:00,,0826.9,4.99,0.00,23.2,22.4,00.0,32.1,25.0,06.4,0000.0,0013.33,0003.74,0002.61
2021-12-06 17:55:00,,0827.0,5.01,0.00,23.2,22.4,00.0,32.1,25.0,06.3,0000.0,0013.09,0003.71,0002.62
2021-12-06 17:56:00,,0827.1,5.00,0.00,23.2,22.4,00.0,32.2,25.0,06.1,0000.0,0012.64,0003.72,0002.63
2021-12-06 17:57:00,,0827.2,5.00,0.00,23.2,22.4,00.0,32.2,25.0,06.1,0000.0,0011.81,0003.69,0002.65
2021-12-06 17:58:00,,0827.0,5.01,0.00,23.2,22.4,00.0,32.2,25.0,06.1,0000.0,0012.35,0003.66,0002.64
2021-12-06 17:59:00,,0827.3,4.99,0.00,23.2,22.4,00.0,32.1,24.9,06.1,0000.0,0011.69,0003.60,0002.62
